Regional Weather Roundup
Issued by NWS

Home | Current Version | Previous Version | Graphics & Text | Print | Product List | Glossary On
Versions: 1 2 3 4 5 6 7 8 9 10 11 12 13 14 15 16 17 18 19 20 21 22 23 24 25 26 27 28 29 30 31 32 33 34 35 36 37 38 39 40 41 42 43 44 45 46 47 48 49 50
000
ASUS45 KBOU 310707
RWRCO

WEATHER ROUNDUP FOR COLORADO
NATIONAL WEATHER SERVICE DENVER/BOULDER CO
100 AM MDT MON AUG 31 2015

NOTE: "FAIR" INDICATES FEW OR NO CLOUDS BELOW 12000 FEET WITH NO
SIGNIFICANT WEATHER AND/OR OBSTRUCTIONS TO VISIBILITY.

COZ001>005-013-030-031-310800-
...NORTHWEST COLORADO...

CITY           SKY/WX    TMP DP  RH WIND       PRES   REMARKS
CRAIG          CLOUDY    61  49  64 VRB5G20   30.21R
HAYDEN         NOT AVBL
MEEKER         NOT AVBL
MOUNT WERNER   NOT AVBL
STEAMBOAT SPGS CLOUDY    57  51  82 SE6       30.29R
WALDEN         CLOUDY    54  45  71 S13       30.29F
$$

COZ006>008-011-310800-
...WEST CENTRAL VALLEYS...

CITY           SKY/WX    TMP DP  RH WIND       PRES   REMARKS
GRAND JUNCTION CLOUDY    62  59  90 SW7       30.14F
MONTROSE       MOCLDY    62  56  80 NE3       30.23R
EAGLE          CLOUDY    57  55  94 E3        30.31R
RIFLE          RAIN      60  57  89 CALM      30.27R FOG
DELTA          MOCLDY    68  55  62 NE6       30.17F
NUCLA          MOCLDY    68  50  52 SE8       30.22S
$$

COZ017>023-064>068-310800-
...SOUTHWEST COLORADO...

CITY           SKY/WX    TMP DP  RH WIND       PRES   REMARKS
DURANGO        CLOUDY    62  48  60 CALM      30.23R
CORTEZ         CLEAR     61  54  77 CALM      30.18R
PAGOSA SPRINGS MOCLDY    62  44  52 NE5       30.31F
TELLURIDE      CLOUDY    56  47  71 CALM      30.42R
WOLF CREEK PAS MOCLDY    43  41  93 SW15      30.61S
$$

COZ009-010-012-014-032>034-037-058>063-310800-
...CENTRAL COLORADO...

CITY           SKY/WX    TMP DP  RH WIND       PRES   REMARKS
ASPEN          LGT RAIN  55  52  89 SE3       30.35F
BUENA VISTA    MOCLDY    65  39  38 NW13      30.27F
COPPER MTN     CLOUDY    46  41  81 W17       30.60R
BERTHOUD PASS  FAIR      41  30  65 NW22G30   30.61S
COTTONWOOD PAS CLOUDY    61  37  41 SW14G25   30.41S
GUNNISON       PTCLDY    57  46  67 CALM      30.34S
KREMMLING      CLOUDY    63  43  48 NW3       30.32R
LEADVILLE      CLOUDY    52  42  69 N8        30.45R
SALIDA         MOCLDY    68  42  38 SW5       30.31S
SUNLIGHT       LGT RAIN  46  46 100 CALM      30.56R
WILKERSON PASS CLOUDY    52  34  50 W7        30.53F
$$

COZ069>075-310800-
...SAN LUIS VALLEY/SANGRE DE CRISTO MOUNTAINS...

CITY           SKY/WX    TMP DP  RH WIND       PRES   REMARKS
ALAMOSA        MOCLDY    53  44  71 NE7       30.26R
LA VETA PASS   CLEAR     54  36  50 MISG      30.42S
SAGUACHE       PTCLDY    61  43  51 NW13      30.28S
$$

COZ035-036-038>040-310800-
...NORTHERN COLORADO FRONT RANGE...

CITY           SKY/WX    TMP DP  RH WIND       PRES   REMARKS
DENVER INTL AP MOCLDY    75  44  33 SW12      29.99F
DMNS CITY PARK   N/A     72  45  37 W5        30.01S
AURORA         MOCLDY    72  44  36 SW9       30.03S
FRONT RANGE AP NOT AVBL
ERIE MUNI ARPT MOCLDY    73  43  34 W3        30.00R
BOULDER MUN AP MOCLDY    73  45  35 CALM      30.01S
CENTENNIAL     MOCLDY    72  43  35 W5        30.05S
BROOMFIELD     MOCLDY    73  43  33 N8        30.05S
FORT COLLINS   MOCLDY    72  46  40 NE6       30.00R
LONGMONT       MOCLDY    73  47  40 CALM      30.01S
$$

COZ041-046-047-076>085-087-088-310800-
...PIKES PEAK/PALMER DIVIDE AND SOUTHERN FOOTHILLS...

CITY           SKY/WX    TMP DP  RH WIND       PRES   REMARKS
COLO. SPRINGS  MOCLDY    63  47  55 NE12      30.09S
A. F. ACADEMY  PTCLDY    57  44  62 N8        30.12S
ELLICOTT       NOT AVBL
FALCON         PTCLDY    61  49  65 MISG      30.15S
FORT CARSON    PTCLDY    63  47  55 NW10      30.05S
LIMON          CLEAR     58  47  66 SE6       30.04S
MONUMENT HILL  PTCLDY    63  45  51 SW8       30.14F
TRINIDAD       CLEAR     72  50  45 SW10      30.07S
$$

COZ042>045-048>051-090-091-310800-
...NORTHEAST COLORADO...

CITY           SKY/WX    TMP DP  RH WIND       PRES   REMARKS
GREELEY ARPT   MOCLDY    72  46  40 N8        29.97S
AKRON          PTCLDY    69  47  45 S15G22    29.97S
BURLINGTON     CLEAR     65  47  52 S15       30.01S
WRAY           CLEAR     72  44  36 S18G24    29.94S
STERLING       PTCLDY    70  50  49 CALM      29.94R
HOLYOKE        CLEAR     64  45  48 S8        29.94F
FORT MORGAN    PTCLDY    71  48  43 S7        29.96F
$$

COZ086-089-092>099-310800-
...SOUTHEAST COLORADO...

CITY           SKY/WX    TMP DP  RH WIND       PRES   REMARKS
PUEBLO         CLEAR     68  47  46 W10       29.95S
LA JUNTA       CLEAR     77  52  41 S8        29.95R
LAMAR          CLEAR     63  52  67 NE8       29.94S HAZE
SPRINGFIELD    NOT AVBL
$$




USA.gov is the U.S. government's official web portal to all federal, state and local government web resources and services.